STARLINK-35703

Last updated on Fri Dec 19 2025 00:02:09 GMT+0000 (Coordinated Universal Time)

1 66970U 25288M 25352.58336806 -.01485923 00000+0 -64884-2 0 9994 2 66970 43.0010 131.3214 0001358 271.4366 333.2001 15.86310128 2772
UTC large
Height (km)
Speed (km/s)
/
Latitude / Longitude
Inclination (degrees)
Orbital Period (minutes)
Azimuth
Elevation
Range (km)
Doppler Factor

Next 0 passes for location: London (51.5072 / 0.1276)

Sorry there are no passes over London.